Waarnemingen

Advertentie
Mijn weer
Estepona, Spanje (8463): temperatuur & dauwpunt: 11.02.2019 13:00:00 - 17.02.2019 13:00:00 (CET)Estepona, Spanje (8463): windsnelheid & windstoten: 11.02.2019 13:00:00 - 17.02.2019 13:00:00 (CET)Estepona, Spanje (8463): windrichting: 11.02.2019 13:00:00 - 17.02.2019 13:00:00 (CET)Estepona, Spanje (8463): luchtdruk: 11.02.2019 13:00:00 - 17.02.2019 13:00:00 (CET)Estepona, Spanje (8463): zicht: 11.02.2019 13:00:00 - 17.02.2019 13:00:00 (CET)Estepona, Spanje (8463): Zonneschijnduur: 11.02.2019 13:00:00 - 17.02.2019 13:00:00 (CET)Estepona, Spanje (8463): neerslag: 11.02.2019 13:00:00 - 17.02.2019 13:00:00 (CET)
Datum & Tijd tt [°C] td [°C] ff [km/u] ff [kn] fx [km/u] fx [kn] dd ppp [hPa] vv [km] sd [min] rr [mm]
17.02.2019 13:00:00 - - - - - - - - - - -
17.02.2019 12:00:00 15,6 9,9 19 11 31 17 ONO 1026,1 10 11 0,0
17.02.2019 11:00:00 15,2 9,0 16 8 31 17 ONO 1026,1 10 8 0,0
17.02.2019 10:00:00 14,0 8,0 9 5 19 10 NO 1026,0 20 0 0,0
17.02.2019 09:00:00 13,4 7,1 8 5 19 10 NO 1025,7 17 0 0,0
17.02.2019 08:00:00 13,2 7,0 9 5 22 12 NO 1025,1 20 0 0,0
17.02.2019 07:00:00 12,9 6,7 10 6 24 13 NO 1024,9 20 0 -
17.02.2019 06:00:00 12,8 7,8 10 5 21 11 NO 1024,9 20 0 0,0
17.02.2019 05:00:00 13,1 8,4 9 5 23 12 NO 1025,0 20 0 0,0
17.02.2019 04:00:00 13,3 8,5 9 5 22 12 NO 1025,2 20 0 0,0
17.02.2019 03:00:00 13,7 8,8 10 5 30 16 NO 1025,5 20 0 0,0
17.02.2019 02:00:00 14,1 9,6 15 8 29 16 ONO 1025,9 7 0 0,0
17.02.2019 01:00:00 13,9 8,8 9 5 28 15 ONO 1026,1 6 0 -
17.02.2019 00:00:00 13,9 8,3 10 5 24 13 NO 1026,3 17 0 0,0
16.02.2019 23:00:00 13,6 8,3 9 5 22 12 NO 1026,2 20 0 0,0
16.02.2019 22:00:00 13,6 8,4 9 5 34 19 NO 1026,0 9 0 0,0
16.02.2019 21:00:00 14,0 8,7 9 5 34 18 ONO 1025,4 6 0 0,0
16.02.2019 20:00:00 - - - - - - - - - - -
16.02.2019 19:00:00 14,6 9,4 24 13 47 25 O 1024,7 12 0 -
16.02.2019 18:00:00 14,7 9,3 27 15 49 26 O 1024,3 16 5 0,0
16.02.2019 17:00:00 14,8 9,2 29 15 50 27 O 1024,4 13 5 0,0
16.02.2019 16:00:00 14,9 9,0 30 16 52 28 O 1024,4 16 2 0,0
16.02.2019 15:00:00 15,0 9,2 33 18 53 29 O 1024,8 10 0 0,0
16.02.2019 14:00:00 15,1 9,2 34 18 52 28 O 1025,4 15 3 0,0
16.02.2019 13:00:00 - - - - - - - - - - -
16.02.2019 12:00:00 14,6 9,6 30 16 49 27 O 1026,8 7 0 0,0
16.02.2019 11:00:00 14,7 9,3 31 17 49 26 O 1026,4 11 10 0,0
16.02.2019 10:00:00 14,9 9,3 29 16 45 24 O 1025,9 12 1 0,0
16.02.2019 09:00:00 14,4 8,5 25 14 44 24 ONO 1025,5 12 0 0,0
16.02.2019 08:00:00 14,3 8,3 28 15 43 23 O 1025,2 18 0 0,0
16.02.2019 07:00:00 13,5 8,4 10 5 37 20 NO 1024,8 18 0 -
16.02.2019 06:00:00 - - - - - - - - - - -
16.02.2019 05:00:00 14,3 9,3 22 12 38 20 O 1024,9 13 0 0,0
16.02.2019 04:00:00 14,3 9,3 25 14 39 21 O 1025,0 13 0 0,0
16.02.2019 03:00:00 14,2 9,7 24 13 37 20 O 1025,2 10 0 0,0
16.02.2019 02:00:00 14,0 9,4 14 7 28 15 ONO 1025,4 7 0 0,0
16.02.2019 01:00:00 14,0 9,2 9 5 26 14 ONO 1025,5 14 0 -
16.02.2019 00:00:00 14,2 9,4 18 10 33 18 ONO 1025,8 8 0 0,0
15.02.2019 23:00:00 14,1 8,5 12 7 37 20 ONO 1025,9 14 0 0,0
15.02.2019 22:00:00 14,2 8,8 23 12 40 22 ONO 1025,5 14 0 0,0
15.02.2019 21:00:00 14,3 8,7 24 13 39 21 ONO 1025,3 13 0 0,0
15.02.2019 20:00:00 14,0 8,7 21 11 44 24 ONO 1025,3 15 0 0,0
15.02.2019 19:00:00 14,0 9,0 28 15 46 25 O 1025,4 15 21 -
15.02.2019 18:00:00 14,4 9,2 27 14 42 23 O 1025,3 15 52 0,0
15.02.2019 17:00:00 14,7 9,0 26 14 43 23 O 1025,7 18 0 0,0
15.02.2019 16:00:00 14,9 9,3 25 14 44 24 O 1026,2 14 0 0,0
15.02.2019 15:00:00 15,0 8,9 26 14 42 23 ONO 1026,6 18 0 0,0
15.02.2019 14:00:00 14,6 8,9 27 14 41 22 O 1027,6 18 0 0,0
15.02.2019 13:00:00 14,5 9,0 28 15 43 23 O 1028,7 17 0 -
15.02.2019 12:00:00 14,6 8,8 20 11 41 22 ONO 1029,4 17 0 0,0
15.02.2019 11:00:00 14,5 8,3 22 12 38 21 ONO 1029,5 14 0 0,0
15.02.2019 10:00:00 14,1 7,0 10 5 27 14 ONO 1029,4 13 0 0,0
15.02.2019 09:00:00 13,6 6,8 9 5 24 13 NO 1029,2 20 0 0,0
15.02.2019 08:00:00 13,6 7,4 10 5 24 13 NO 1028,9 17 0 0,0
15.02.2019 07:00:00 13,7 7,8 14 7 31 17 ONO 1029,0 14 0 -
15.02.2019 06:00:00 13,9 8,9 16 9 29 16 ONO 1029,1 12 0 0,0
15.02.2019 05:00:00 13,6 8,4 9 5 22 12 NO 1029,2 15 0 0,0
15.02.2019 04:00:00 13,6 8,0 8 4 22 12 NO 1029,5 20 0 0,0
15.02.2019 03:00:00 13,6 7,8 10 5 22 12 NO 1030,0 20 0 0,0
15.02.2019 02:00:00 13,4 7,0 9 5 23 12 NO 1030,5 20 0 0,0
15.02.2019 01:00:00 13,0 6,1 10 5 23 12 NO 1030,9 20 0 -
15.02.2019 00:00:00 12,5 5,5 11 6 22 12 NO 1031,1 20 0 0,0
14.02.2019 23:00:00 11,9 4,8 8 4 18 10 NO 1031,4 20 0 0,0
14.02.2019 22:00:00 12,0 5,0 7 4 19 10 ONO 1031,3 9 0 0,0
14.02.2019 21:00:00 12,8 5,5 10 5 23 12 NO 1031,0 20 0 0,0
14.02.2019 20:00:00 13,8 7,8 17 9 38 20 ONO 1031,0 19 0 0,0
14.02.2019 19:00:00 13,9 8,5 24 13 37 20 O 1030,8 14 25 -
14.02.2019 18:00:00 14,6 8,8 24 13 39 21 O 1030,8 13 60 0,0
14.02.2019 17:00:00 14,9 8,7 24 13 40 22 O 1031,1 15 59 0,0
14.02.2019 16:00:00 15,2 8,7 26 14 43 23 O 1031,4 17 18 0,0
14.02.2019 15:00:00 15,4 8,8 27 15 44 24 O 1031,9 13 1 0,0
14.02.2019 14:00:00 14,2 8,1 27 15 47 25 O 1032,6 13 0 0,0
14.02.2019 13:00:00 14,3 8,5 28 15 45 24 ONO 1033,2 10 0 -
14.02.2019 12:00:00 14,0 8,4 24 13 40 22 ONO 1033,8 8 0 0,0
14.02.2019 11:00:00 13,8 8,3 18 10 38 20 ONO 1033,6 9 0 0,0
14.02.2019 10:00:00 13,4 7,6 11 6 31 17 ONO 1033,3 13 0 0,0
14.02.2019 09:00:00 13,1 7,1 12 6 35 19 NO 1032,8 17 0 0,0
14.02.2019 08:00:00 - - - - - - - - - - -
14.02.2019 07:00:00 13,0 7,0 11 6 28 15 ONO 1031,9 19 0 -
14.02.2019 06:00:00 - - - - - - - - - - -
14.02.2019 05:00:00 12,8 7,3 10 6 24 13 NO 1031,7 20 0 0,0
14.02.2019 04:00:00 12,8 7,3 11 6 25 13 NO 1031,8 20 0 0,0
14.02.2019 03:00:00 12,7 7,0 12 6 25 14 NO 1031,7 20 0 0,0
14.02.2019 02:00:00 13,0 7,0 12 7 26 14 NO 1031,7 20 0 0,0
14.02.2019 01:00:00 13,3 6,4 11 6 27 15 NO 1031,8 20 0 -
14.02.2019 00:00:00 13,2 5,8 10 6 26 14 NO 1031,9 20 0 0,0
13.02.2019 23:00:00 13,0 5,6 12 6 26 14 NO 1031,8 20 0 0,0
13.02.2019 22:00:00 - - - - - - - - - - -
13.02.2019 21:00:00 12,7 6,2 11 6 23 12 NO 1031,2 20 0 0,0
13.02.2019 20:00:00 13,3 7,7 11 6 40 22 NO 1030,9 20 0 0,0
13.02.2019 19:00:00 14,0 8,4 23 12 39 21 O 1030,6 20 21 -
13.02.2019 18:00:00 14,5 8,4 25 14 42 23 O 1030,4 20 60 0,0
13.02.2019 17:00:00 15,0 8,5 25 14 39 21 O 1030,5 18 60 0,0
13.02.2019 16:00:00 15,4 8,7 26 14 41 22 O 1030,6 13 20 0,0
13.02.2019 15:00:00 15,6 8,8 26 14 41 22 O 1030,7 17 6 0,0
13.02.2019 14:00:00 15,0 8,5 25 14 42 23 O 1031,2 17 1 0,0
13.02.2019 13:00:00 - - - - - - - - - - -
13.02.2019 12:00:00 14,7 8,0 23 12 42 23 ONO 1032,0 13 1 0,0
13.02.2019 11:00:00 14,8 7,8 18 10 33 18 ONO 1031,8 9 6 0,0
13.02.2019 10:00:00 13,6 6,8 10 5 26 14 NO 1031,5 13 0 0,0
13.02.2019 09:00:00 12,7 5,8 11 6 27 14 NO 1031,2 20 0 0,0
13.02.2019 08:00:00 - - - - - - - - - - -
13.02.2019 07:00:00 13,0 6,5 10 5 26 14 NO 1030,4 20 0 -
13.02.2019 06:00:00 13,1 6,4 10 6 26 14 NO 1030,5 20 0 0,0
13.02.2019 05:00:00 12,9 6,5 10 5 26 14 NO 1030,7 20 0 0,0
13.02.2019 04:00:00 13,0 6,8 13 7 27 15 NO 1031,0 20 0 0,0
13.02.2019 03:00:00 13,0 7,0 12 6 29 15 NO 1031,4 20 0 0,0
13.02.2019 02:00:00 12,9 7,0 12 7 27 15 NO 1031,6 20 0 0,0
13.02.2019 01:00:00 13,1 5,8 12 7 29 15 NO 1031,9 20 0 -
13.02.2019 00:00:00 13,2 4,3 12 6 32 17 NO 1031,9 20 0 0,0
12.02.2019 23:00:00 13,2 4,1 12 7 27 15 NO 1032,1 20 0 0,0
12.02.2019 22:00:00 12,9 3,0 10 5 26 14 NO 1032,1 20 0 0,0
12.02.2019 21:00:00 12,9 4,1 10 6 28 15 NO 1031,8 20 0 0,0
12.02.2019 20:00:00 13,5 7,0 12 7 42 23 ONO 1031,5 14 0 0,0
12.02.2019 19:00:00 14,2 8,1 18 10 45 24 ONO 1031,2 13 15 -
12.02.2019 18:00:00 15,2 9,0 23 12 46 25 ONO 1031,0 16 51 0,0
12.02.2019 17:00:00 15,2 9,0 27 14 48 26 ONO 1031,0 13 1 0,0
12.02.2019 16:00:00 14,6 9,4 29 15 50 27 ONO 1031,0 10 0 0,0
12.02.2019 15:00:00 14,7 10,2 29 16 47 26 ONO 1031,1 7 0 0,0
12.02.2019 14:00:00 15,1 10,3 25 14 47 26 ONO 1031,4 7 0 0,0
12.02.2019 13:00:00 - - - - - - - - - - -
12.02.2019 12:00:00 15,3 10,5 29 15 47 26 ONO 1031,9 7 2 0,0
12.02.2019 11:00:00 15,3 11,1 25 14 43 23 ONO 1031,6 6 0 0,0
12.02.2019 10:00:00 14,8 10,8 24 13 41 22 ONO 1031,1 12 0 0,0
12.02.2019 09:00:00 14,6 10,4 15 8 32 18 ONO 1030,4 16 0 0,0
12.02.2019 08:00:00 14,5 10,2 9 5 27 15 NO 1029,9 19 0 0,0
12.02.2019 07:00:00 14,3 9,7 10 5 28 15 NO 1029,7 19 0 -
12.02.2019 06:00:00 14,0 9,4 9 5 27 15 NO 1029,3 20 0 0,0
12.02.2019 05:00:00 14,2 9,0 11 6 34 18 ONO 1028,9 20 0 0,0
12.02.2019 04:00:00 14,6 6,2 10 6 23 12 NO 1028,9 20 0 0,0
12.02.2019 03:00:00 13,6 8,0 6 3 17 9 ONO 1029,0 20 0 0,0
12.02.2019 02:00:00 13,3 7,7 5 3 16 8 NNO 1028,7 20 0 0,0
12.02.2019 01:00:00 12,0 8,3 3 1 6 3 WNW 1028,7 20 0 -
12.02.2019 00:00:00 12,4 8,7 0 0 7 4 N 1028,6 20 0 0,0
11.02.2019 23:00:00 13,4 9,3 2 1 7 4 Z 1028,3 20 0 0,0
11.02.2019 22:00:00 14,6 10,0 5 3 9 5 W 1028,0 20 0 0,0
11.02.2019 21:00:00 15,7 8,0 6 3 13 7 NO 1027,3 20 0 0,0
11.02.2019 20:00:00 15,7 8,4 3 2 11 6 N 1027,1 20 0 0,0
11.02.2019 19:00:00 15,9 9,0 6 4 11 6 NO 1026,6 20 17 -
11.02.2019 18:00:00 17,7 11,4 6 3 11 6 ONO 1026,0 20 60 0,0
11.02.2019 17:00:00 17,8 10,6 5 3 11 6 O 1026,0 20 36 0,0
11.02.2019 16:00:00 18,1 11,2 6 4 15 8 O 1026,2 20 15 0,0
11.02.2019 15:00:00 19,7 10,6 6 3 11 6 O 1026,4 20 1 0,0
11.02.2019 14:00:00 19,7 11,0 5 3 12 6 O 1027,1 20 39 0,0
11.02.2019 13:00:00 18,8 9,6 6 3 12 7 O 1027,6 20 33 -

tt = temperatuur
td = dauwpunt
ff = windsnelheid
fx = windstoten
dd = windrichting
ppp = luchtdruk
vv = zicht
sd = Zonneschijnduur
rr = neerslag

Weerstations in de omgeving